Location: Saluda
(35.2377°N, 82.3468°W)
Time: 04:01:19
(UTC+00:00)

Vanguard 2 - Pass Details

Date: 04 October 2022
Orbit: 553 x 2933 km, 32.9° (Epoch: 04 December)

Event Time Altitude Azimuth Distance (km) Brightness Sun altitude
Rises 01:27:59 0° 282° (WNW) 6,663 13.5 -28.7°
Reaches altitude 10° 01:33:22 10° 272° (W) 5,746 12.8 -29.7°
Maximum altitude 01:46:40 27° 223° (SW) 4,317 11.4 -32.3°
Enters shadow 01:58:07 11° 174° (S) 4,949 11.4 -34.5°
Drops below altitude 10° 01:58:24 10° 173° (S) 4,989 - -34.6°
Sets 02:02:44 0° 161° (SSE) 5,667 - -35.4°
